Eureka, Nunavut

8:29 AM CDT on April 26, 2017 (GMT -0500)
Eureka

Weather History for CWEU - May, 2013

Change the Weather History Date:

Monday, May 27, 2013

  Actual Average Record
Temperature  
Mean Temperature 22 °F -  
Max Temperature 26 °F 38 °F 37 °F (2011)
Min Temperature 19 °F 28 °F 10 °F (2007)
Degree Days  
Heating Degree Days 42    
Moisture  
Dew Point 18 °F    
Average Humidity 79    
Maximum Humidity 86    
Minimum Humidity 71    
Precipitation  
Precipitation 0.00 in 0.01 in - ()
Sea Level Pressure  
Sea Level Pressure 30.27 in    
Wind  
Wind Speed 13 mph ()    
Max Wind Speed 17 mph    
Max Gust Speed -    
Visibility 15.0 miles    
Events      
Averages and records for this station are not official NWS values.
T = Trace of Precipitation, MM = Missing Value Source: Averaged Metar Reports

Daily Weather History Graph

Daily Weather History Graph

Search for Another Location

Airport or City:

Trip Planner

Search our weather history database for the weather conditions in past years. The results will help you decide how hot, cold, wet, or windy it might be!

Date:

Astronomy

Dec. 31, 1969 Rise Set
Actual Time Sun does not set Sun does not set
Civil Twilight Sun does not set Sun does not set
Nautical Twilight Sun does not set Sun does not set
Astronomical Twilight Sun does not set Sun does not set
Moon No Moon Rise No Moon Set
Length of Visible Light 24h 00m
Length of Day
24h 00m
Waning Gibbous, 91% of the Moon is Illuminated
May 27
Waning Gibbous
May 31
Last Quarter
Jun 8
New
Jun 16
First Quarter
Jun 23
Full

Hourly Weather History & Observations

Time (CDT) Temp. Windchill Dew Point Humidity Pressure Visibility Wind Dir Wind Speed Gust Speed Precip Events Conditions
1:00 AM 21 °F - 16 °F 74% 30.29 in 15 mi South 13.8 mph - -   Overcast
1:00 AM 21.2 °F 8.3 °F 15.8 °F 80% 30.29 in 15.0 mi South 13.8 mph - N/A   Overcast
2:00 AM 21.2 °F 8.9 °F 15.8 °F 80% 30.30 in 15.0 mi South 12.7 mph - N/A   Overcast
3:00 AM 21.2 °F 7.3 °F 15.8 °F 80% 30.30 in 15.0 mi South 16.1 mph - N/A   Overcast
4:00 AM 19.4 °F 5.0 °F 15.8 °F 86% 30.31 in 15.0 mi South 16.1 mph - N/A   Mostly Cloudy
5:00 AM 21.2 °F 6.8 °F 15.8 °F 80% 30.31 in 15.0 mi South 17.3 mph - N/A   Mostly Cloudy
6:00 AM 21.2 °F 6.8 °F 15.8 °F 80% 30.31 in 15.0 mi South 17.3 mph - N/A   Mostly Cloudy
7:00 AM 22 °F - 17 °F 74% 30.31 in 15 mi South 15.0 mph - -   Mostly Cloudy
7:00 AM 21.2 °F 7.3 °F 17.6 °F 86% 30.31 in 15.0 mi South 16.1 mph - N/A   Mostly Cloudy
8:00 AM 23.0 °F 9.6 °F 17.6 °F 80% 30.31 in 15.0 mi South 16.1 mph - N/A   Mostly Cloudy
9:00 AM 23.0 °F 10.6 °F 17.6 °F 80% 30.31 in 15.0 mi South 13.8 mph - N/A   Mostly Cloudy
10:00 AM 23.0 °F 10.1 °F 17.6 °F 80% 30.31 in 15.0 mi South 15.0 mph - N/A   Mostly Cloudy
11:00 AM 24.8 °F 12.9 °F 17.6 °F 74% 30.30 in 15.0 mi South 13.8 mph - N/A   Mostly Cloudy
12:00 PM 23.0 °F 9.6 °F 19.4 °F 86% 30.29 in 15.0 mi South 16.1 mph - N/A   Scattered Clouds
1:00 PM 24 °F - 19 °F 73% 30.28 in 15 mi South 12.7 mph - -   Partly Cloudy
1:00 PM 24.8 °F 13.4 °F 19.4 °F 80% 30.28 in 15.0 mi South 12.7 mph - N/A   Mostly Cloudy
2:00 PM 24.8 °F 11.9 °F 19.4 °F 80% 30.27 in 15.0 mi South 16.1 mph - N/A   Mostly Cloudy
3:00 PM 24.8 °F 12.4 °F 19.4 °F 80% 30.27 in 15.0 mi South 15.0 mph - N/A   Mostly Cloudy
4:00 PM 26.6 °F 15.2 °F 21.2 °F 80% 30.26 in 15.0 mi South 13.8 mph - N/A   Mostly Cloudy
5:00 PM 24.8 °F 11.9 °F 19.4 °F 80% 30.25 in 15.0 mi SSW 16.1 mph - N/A   Mostly Cloudy
6:00 PM 24.8 °F 12.9 °F 19.4 °F 80% 30.23 in 15.0 mi South 13.8 mph - N/A   Mostly Cloudy
7:00 PM 24 °F - 18 °F 71% 30.22 in 15 mi SSW 13.8 mph - -   Partly Cloudy
7:00 PM 24.8 °F 13.4 °F 19.4 °F 80% 30.22 in 15.0 mi SSW 12.7 mph - N/A   Mostly Cloudy
8:00 PM 23.0 °F 11.7 °F 19.4 °F 86% 30.21 in 15.0 mi South 11.5 mph - N/A   Mostly Cloudy
9:00 PM 23.0 °F 13.9 °F 17.6 °F 80% 30.19 in 15.0 mi SSW 8.1 mph - N/A   Mostly Cloudy
10:00 PM 23.0 °F 13.1 °F 15.8 °F 74% 30.17 in 15.0 mi South 9.2 mph - N/A   Scattered Clouds